{"data":{"norad_id":65993,"intl_designator":"2025-230V","name":"SDA_1683","alt_names":[],"object_type":"PAYLOAD","status":"ACTIVE","operator":null,"country":"US","launch_date":"2025-10-15","launch_site_code":"AFWTR","launch_vehicle":null,"mission":null,"orbit_class":"UNKNOWN","rcs_meters":null,"size_class":null,"mass_kg":null,"dimensions":null,"purposes":[],"wikipedia_slug":null,"has_3d_model":false,"image_url":null,"decayed_at":null,"tle_current":{"epoch":"2026-09-20T21:31:46.115328Z","epoch_age_seconds":106063,"freshness":"FRESH","line1":"1 65993U 25230V   26263.89706152  .00000090  00000+0  78139-4 0  9991","line2":"2 65993  81.2995 124.6374 0001155  54.8656 305.2605 13.78094634 46951","mean_motion":13.78094634,"eccentricity":0.0001155,"inclination_deg":81.2995,"raan_deg":124.6374,"arg_perigee_deg":54.8656,"mean_anomaly_deg":305.2605,"bstar":7.8139e-5,"rev_number":4695,"period_min":104.49209832712,"perigee_km":969.80381614192,"apogee_km":971.50138653983,"semimajor_km":7348.7896013409,"source":"CELESTRAK","updated_at":"2026-09-21T09:00:15.691408Z"}}}